AZA536 LIMC-LPPT

Flight info

Callsign AZA536
Flight time N/A
Altitude 39000
Route NEDED DCT GEKBA DCT VAMTU DCT KOLON DCT GANGU DCT PADKO DCT DIVKO DCT NILDU DCT NENDA DCT BCN DCT ANTON DCT XIKEN DCT OSLAP DCT SALAS DCT RAMON DCT NEXAS DCT DISVU DCT ADUXO N975 PALIO DCT AKOKI DCT GOTOR DCT TLD DCT NATPA DCT MELON DCT CCS DCT ELVAR DCT UPULO
Aircraft MD11/H-SDE1E2E3FGHIJ2J3J4J5M1RWXYZ/LB1D1

Departure

Time 2026-04-30 08:36
Airport Milan Malpensa International Airport (LIMC)

Arrival

Time N/A
Airport Lisbon Humberto Delgado Airport (LPPT)
Time Latitude Longitude Altitude Speed Heading
2026-04-30 07:56 45.63185 8.71552 743 ft 0 kts 258°
2026-04-30 08:19 45.63186 8.71561 743 ft 4 kts 259°
2026-04-30 08:19 45.63189 8.71599 740 ft 4 kts 274°
2026-04-30 08:19 45.63185 8.71635 741 ft 4 kts 292°
2026-04-30 08:20 45.63173 8.71667 742 ft 4 kts 315°
2026-04-30 08:20 45.63154 8.71688 741 ft 4 kts 342°
2026-04-30 08:20 45.63145 8.71692 741 ft 0 kts 349°
2026-04-30 08:25 45.63150 8.71691 743 ft 3 kts 349°
2026-04-30 08:25 45.63189 8.71681 742 ft 8 kts 349°
2026-04-30 08:25 45.63255 8.71673 743 ft 8 kts 14°
2026-04-30 08:26 45.63286 8.71733 741 ft 9 kts 77°
2026-04-30 08:26 45.63301 8.71845 741 ft 14 kts 79°
2026-04-30 08:26 45.63274 8.71963 744 ft 13 kts 147°
2026-04-30 08:26 45.63171 8.71997 742 ft 18 kts 169°
2026-04-30 08:27 45.63037 8.72034 741 ft 22 kts 168°
2026-04-30 08:27 45.62875 8.72080 744 ft 25 kts 169°
2026-04-30 08:27 45.62708 8.72126 741 ft 24 kts 169°
2026-04-30 08:27 45.62553 8.72171 742 ft 22 kts 167°
2026-04-30 08:28 45.62411 8.72212 744 ft 20 kts 169°
2026-04-30 08:28 45.62280 8.72248 742 ft 18 kts 169°
2026-04-30 08:28 45.62161 8.72281 744 ft 16 kts 169°
2026-04-30 08:28 45.62054 8.72311 743 ft 16 kts 168°
2026-04-30 08:29 45.61937 8.72346 744 ft 19 kts 168°
2026-04-30 08:29 45.61806 8.72380 743 ft 20 kts 170°
2026-04-30 08:29 45.61668 8.72413 743 ft 20 kts 171°
2026-04-30 08:29 45.61531 8.72450 742 ft 19 kts 169°
2026-04-30 08:30 45.61403 8.72486 742 ft 18 kts 169°
2026-04-30 08:30 45.61286 8.72519 741 ft 17 kts 169°
2026-04-30 08:30 45.61174 8.72549 744 ft 13 kts 169°
2026-04-30 08:30 45.61095 8.72585 742 ft 10 kts 142°
2026-04-30 08:31 45.61079 8.72682 743 ft 11 kts 79°
2026-04-30 08:31 45.61103 8.72796 746 ft 13 kts 82°
2026-04-30 08:31 45.61117 8.72944 743 ft 16 kts 82°
2026-04-30 08:31 45.61166 8.73081 741 ft 17 kts 40°
2026-04-30 08:32 45.61261 8.73173 741 ft 15 kts 34°
2026-04-30 08:32 45.61343 8.73251 741 ft 14 kts 30°
2026-04-30 08:32 45.61448 8.73256 743 ft 16 kts 347°
2026-04-30 08:32 45.61553 8.73225 743 ft 13 kts 349°
2026-04-30 08:33 45.61604 8.73258 740 ft 8 kts 54°
2026-04-30 08:33 45.61624 8.73352 744 ft 12 kts 79°
2026-04-30 08:33 45.61612 8.73474 742 ft 13 kts 115°
2026-04-30 08:33 45.61576 8.73590 741 ft 11 kts 90°
2026-04-30 08:34 45.61591 8.73693 742 ft 9 kts 71°
2026-04-30 08:34 45.61642 8.73730 744 ft 9 kts
2026-04-30 08:34 45.61674 8.73722 741 ft 0 kts 349°
2026-04-30 08:35 45.61868 8.73669 744 ft 74 kts 349°
2026-04-30 08:35 45.62669 8.73448 744 ft 157 kts 348°
2026-04-30 08:36 45.63894 8.73106 1005 ft 194 kts 348°
2026-04-30 08:36 45.65240 8.72728 1957 ft 198 kts 356°
2026-04-30 08:36 45.66612 8.72619 3028 ft 198 kts
2026-04-30 08:36 45.67964 8.72658 4167 ft 188 kts
2026-04-30 08:37 45.69340 8.72768 4878 ft 211 kts
2026-04-30 08:37 45.70908 8.72886 5128 ft 235 kts
2026-04-30 08:37 45.72533 8.72426 5415 ft 244 kts 339°
2026-04-30 08:37 45.73931 8.71054 5500 ft 247 kts 313°
2026-04-30 08:38 45.74747 8.68908 5420 ft 248 kts 283°
2026-04-30 08:38 45.74781 8.66479 5210 ft 245 kts 256°
2026-04-30 08:38 45.74126 8.64273 4962 ft 240 kts 232°
2026-04-30 08:38 45.73068 8.62450 4846 ft 239 kts 226°
2026-04-30 08:39 45.71956 8.60674 4810 ft 239 kts 227°
2026-04-30 08:39 45.70940 8.58772 4774 ft 248 kts 233°
2026-04-30 08:39 45.69941 8.56660 4922 ft 261 kts 234°
2026-04-30 08:39 45.68952 8.54474 4965 ft 262 kts 235°
2026-04-30 08:40 45.67740 8.52552 5138 ft 260 kts 210°
2026-04-30 08:40 45.66165 8.51354 6039 ft 258 kts 203°
2026-04-30 08:40 45.64537 8.50322 6806 ft 260 kts 201°
2026-04-30 08:40 45.62837 8.49295 7485 ft 263 kts 201°
2026-04-30 08:41 45.61135 8.48280 8149 ft 267 kts 201°
2026-04-30 08:41 45.59410 8.47256 8779 ft 271 kts 202°
2026-04-30 08:41 45.57683 8.46235 9400 ft 273 kts 203°
2026-04-30 08:41 45.55897 8.45250 10028 ft 277 kts 201°
2026-04-30 08:42 45.54066 8.44311 10458 ft 288 kts 201°
2026-04-30 08:42 45.52083 8.43310 10584 ft 319 kts 201°
2026-04-30 08:42 45.49866 8.42196 10721 ft 354 kts 200°
2026-04-30 08:42 45.47496 8.41012 11406 ft 366 kts 200°
2026-04-30 08:43 45.45078 8.39809 12294 ft 373 kts 200°
2026-04-30 08:43 45.42605 8.38579 13147 ft 380 kts 200°
2026-04-30 08:43 45.40082 8.37324 14007 ft 387 kts 200°
2026-04-30 08:43 45.37516 8.36048 14766 ft 392 kts 200°
2026-04-30 08:44 45.34929 8.34762 15537 ft 397 kts 200°
2026-04-30 08:44 45.32299 8.33456 16293 ft 402 kts 200°
2026-04-30 08:44 45.29645 8.32138 17019 ft 406 kts 200°
2026-04-30 08:44 45.26960 8.30807 17747 ft 411 kts 200°
2026-04-30 08:45 45.24239 8.29459 18445 ft 416 kts 200°
2026-04-30 08:45 45.21495 8.28101 19082 ft 419 kts 200°
2026-04-30 08:45 45.18726 8.26732 19692 ft 424 kts 200°
2026-04-30 08:45 45.15969 8.25370 20278 ft 427 kts 200°
2026-04-30 08:46 45.13152 8.23982 20868 ft 430 kts 200°
2026-04-30 08:46 45.10254 8.22835 21448 ft 434 kts 193°
2026-04-30 08:46 45.07271 8.22029 22056 ft 438 kts 190°
2026-04-30 08:46 45.04244 8.21375 22664 ft 442 kts 189°
2026-04-30 08:47 45.01187 8.20766 23298 ft 445 kts 189°
2026-04-30 08:47 44.98106 8.20152 23909 ft 449 kts 189°
2026-04-30 08:47 44.95003 8.19518 24449 ft 452 kts 190°
2026-04-30 08:47 44.91874 8.18862 25012 ft 455 kts 191°
2026-04-30 08:48 44.88731 8.18191 25589 ft 458 kts 191°
2026-04-30 08:48 44.85563 8.17509 26171 ft 461 kts 191°
2026-04-30 08:48 44.82386 8.16822 26733 ft 464 kts 192°
2026-04-30 08:48 44.79182 8.16129 27306 ft 467 kts 192°
2026-04-30 08:49 44.75949 8.15431 27876 ft 471 kts 192°
2026-04-30 08:49 44.72701 8.14730 28424 ft 474 kts 193°
2026-04-30 08:49 44.69478 8.13795 28930 ft 472 kts 201°
2026-04-30 08:49 44.66462 8.12062 29479 ft 467 kts 212°
2026-04-30 08:50 44.64584 8.10599 29816 ft 467 kts 216°
2026-04-30 08:50 44.61828 8.08154 30337 ft 468 kts 218°
2026-04-30 08:50 44.59101 8.05617 30758 ft 471 kts 218°
2026-04-30 08:50 44.56366 8.03090 31297 ft 471 kts 217°
2026-04-30 08:51 44.53614 8.00606 31840 ft 470 kts 217°
2026-04-30 08:51 44.50849 7.98166 32364 ft 469 kts 216°
2026-04-30 08:51 44.48083 7.95764 32890 ft 468 kts 216°
2026-04-30 08:51 44.45305 7.93372 33400 ft 467 kts 216°
2026-04-30 08:52 44.42531 7.90994 33893 ft 466 kts 215°
2026-04-30 08:52 44.39769 7.88629 34381 ft 465 kts 215°
2026-04-30 08:52 44.37045 7.86299 34777 ft 464 kts 215°
2026-04-30 08:52 44.34295 7.83948 35170 ft 463 kts 215°
2026-04-30 08:53 44.31553 7.81604 35560 ft 461 kts 215°
2026-04-30 08:53 44.28817 7.79268 35929 ft 460 kts 215°
2026-04-30 08:53 44.26168 7.76796 36294 ft 456 kts 220°
2026-04-30 08:53 44.23711 7.74044 36676 ft 452 kts 224°
2026-04-30 08:54 44.21355 7.71149 37049 ft 450 kts 225°
2026-04-30 08:54 44.19035 7.68205 37195 ft 452 kts 226°
2026-04-30 08:54 44.16715 7.65249 37220 ft 453 kts 226°
2026-04-30 08:55 44.12224 7.59137 37226 ft 450 kts 231°
2026-04-30 08:55 44.08125 7.52563 37211 ft 449 kts 233°
2026-04-30 08:56 44.04085 7.45935 37196 ft 448 kts 233°
2026-04-30 08:56 44.00022 7.39354 37189 ft 448 kts 232°
2026-04-30 08:57 43.95946 7.32811 37172 ft 448 kts 232°
2026-04-30 08:57 43.91892 7.26328 37161 ft 447 kts 232°
2026-04-30 08:58 43.87814 7.19822 37163 ft 447 kts 232°
2026-04-30 08:58 43.83729 7.13316 37153 ft 447 kts 232°
2026-04-30 08:59 43.79641 7.06822 37153 ft 447 kts 232°
2026-04-30 08:59 43.75553 7.00341 37149 ft 447 kts 232°
2026-04-30 09:00 43.71674 6.93674 37151 ft 442 kts 242°
2026-04-30 09:00 43.69112 6.86024 37153 ft 438 kts 251°
2026-04-30 09:01 43.66962 6.78161 37154 ft 437 kts 251°
2026-04-30 09:01 43.64755 6.70332 37157 ft 437 kts 250°
2026-04-30 09:02 43.61329 6.58642 37149 ft 437 kts 250°
2026-04-30 09:02 43.59032 6.50896 37131 ft 436 kts 250°
2026-04-30 09:03 43.56728 6.43146 37131 ft 436 kts 250°
2026-04-30 09:03 43.54434 6.35447 37129 ft 436 kts 249°
2026-04-30 09:04 43.52126 6.27726 37132 ft 436 kts 249°
2026-04-30 09:04 43.49813 6.20011 37131 ft 436 kts 249°
2026-04-30 09:05 43.47494 6.12301 37127 ft 436 kts 249°
2026-04-30 09:05 43.45153 6.04613 37123 ft 436 kts 249°
2026-04-30 09:06 43.42794 5.96922 37118 ft 436 kts 249°
2026-04-30 09:06 43.40446 5.89239 37115 ft 436 kts 249°
2026-04-30 09:07 43.38100 5.81560 37113 ft 435 kts 249°
2026-04-30 09:07 43.35767 5.73943 37111 ft 435 kts 249°